Location: Unspecified
(0.0000°N, 0.0000°E)
Time: 14:21:41
(UTC+00:00)

RAPTOR3 - Visible Passes

Search period start: 15 September 2024 00:00
Search period end: 25 September 2024 00:00
Orbit: 991 x 1005 km, 40.0° (Epoch: 14 September)

Date Brightness Start Highest point End Pass type
(mag) Time Alt. Az. Time Alt. Az. Time Alt. Az.
15 Sep 6.0 19:25:18 10° WNW 19:31:46 58° SW 19:35:11 28° SSE visible
16 Sep 7.9 04:57:12 10° S 05:01:15 17° SE 05:05:17 10° ESE visible
16 Sep 5.7 18:06:36 10° NW 18:13:05 59° NE 18:19:35 10° ESE visible
16 Sep 7.3 19:58:56 10° W 20:04:10 25° SW 20:06:45 20° S visible
17 Sep 6.9 05:27:37 10° SSW 05:33:46 38° SE 05:39:54 10° ENE visible
17 Sep 6.0 18:38:55 10° WNW 18:45:24 60° SW 18:51:56 10° SE visible
18 Sep 7.9 04:10:59 10° S 04:14:52 16° SE 04:18:43 10° ESE visible
18 Sep 7.3 19:12:30 10° W 19:17:49 26° SW 19:23:10 10° SSE visible
19 Sep 6.9 04:41:19 10° SSW 04:47:24 37° SE 04:53:28 10° ENE visible
19 Sep 8.1 19:49:33 10° SW 19:50:29 10° SW 19:51:25 10° SSW visible
20 Sep 7.8 03:25:53 12° SSE 03:28:29 15° SE 03:32:10 10° ESE visible
20 Sep 5.7 05:13:03 10° SW 05:19:45 85° SE 05:26:27 10° NE visible
20 Sep 7.4 18:26:02 10° W 18:31:27 27° SW 18:36:53 10° SSE visible
21 Sep 6.8 03:57:25 21° S 04:01:02 35° SE 04:07:03 10° ENE visible
21 Sep 8.1 19:02:34 10° SW 19:04:06 11° SW 19:05:39 10° SSW visible
22 Sep 8.0 02:43:53 13° ESE 02:43:53 13° ESE 02:45:36 10° ESE visible
22 Sep 5.6 04:29:00 23° SW 04:33:23 82° SE 04:40:05 10° NE visible
23 Sep 6.9 03:15:29 33° ESE 03:15:29 33° ESE 03:20:37 10° ENE visible
23 Sep 6.0 05:00:35 15° WSW 05:05:43 43° NW 05:12:00 10° NNE visible
23 Sep 8.2 18:15:46 10° SW 18:17:43 11° SW 18:19:41 10° SSW visible
24 Sep 5.5 03:47:01 80° SE 03:47:01 80° SE 03:53:42 10° NE visible
